Regional Weather Roundup
Issued by NWS Sioux Falls, SD

Home | Current Version | Previous Version | Graphics & Text | Print | Product List | Glossary Off
Versions: 1 2 3 4 5 6 7 8 9 10 11 12 13 14 15 16 17 18 19 20 21 22 23 24 25 26 27 28 29 30 31 32 33 34 35 36 37 38 39 40 41 42 43 44 45 46 47 48 49 50

000
ASUS43 KFSD 300410
RWRFSD

WEATHER ROUNDUP FOR SE SOUTH DAKOTA/SW MINNESOTA/NW IOWA
NATIONAL WEATHER SERVICE SIOUX FALLS SD
1100 PM CDT MON JUN 29 2015

NOTE: "FAIR" INDICATES FEW OR NO CLOUDS BELOW 12,000 FEET WITH NO
SIGNIFICANT WEATHER AND OR OBSTRUCTIONS TO VISIBILITY.


SDZ038>040-050-052>070-300500-
SOUTHEAST SOUTH DAKOTA

CITY           SKY/WX    TMP DP  RH WIND       PRES   REMARKS
BROOKINGS      PTCLDY    70  61  73 N6        29.94R
CHAMBERLAIN    CLEAR     69  63  81 CALM      29.94R
HURON          PTCLDY    73  67  81 NE5       29.91R
MADISON        FAIR      66  66 100 NW7       29.94R
MITCHELL       PTCLDY    75  66  73 SW5       29.91R
SIOUX FALLS    PTCLDY    72  62  71 W5        29.91R
WINNER         FAIR      78  55  44 SW6       29.96R
YANKTON        PTCLDY    73  63  68 SW5       29.91S
$$

MNZ071-072-080-081-089-090-097-098-300500-
SOUTHWEST MINNESOTA

CITY           SKY/WX    TMP DP  RH WIND       PRES   REMARKS
FAIRMONT       CLEAR     70  59  68 NW9       29.86S
JACKSON        CLEAR     68  61  77 W5        29.90R
LUVERNE        MOCLDY    70  63  78 CALM      29.91R
MARSHALL       CLEAR     68  61  77 N7        29.90R
MONTEVIDEO     CLEAR     68  63  83 N8        29.89S
PIPESTONE      PTCLDY    72  63  73 N5        29.93R
REDWOOD FALLS  CLEAR     70  64  81 NW9       29.87R
TRACY          CLOUDY    68  64  86 NW6       29.90R
WINDOM         CLEAR     68  63  83 NW7       29.89S
WORTHINGTON    PTCLDY    66  59  77 NW8       29.91S
$$

IAZ001>003-012>014-020>022-031-032-NEZ013-014-SDZ071-300500-
NORTHWEST IOWA

CITY           SKY/WX    TMP DP  RH WIND       PRES   REMARKS
CHEROKEE       PTCLDY    66  64  92 SW3       29.90S
DENISON        CLOUDY    66  64  94 CALM      29.90S
ESTHERVILLE    MOCLDY    65  61  87 W7        29.88R
LE MARS        PTCLDY    66  63  88 CALM      29.92R
ORANGE CITY    CLEAR     66  61  82 CALM      29.91S
SHELDON        CLOUDY    66  66 100 SW6       29.90R
SIOUX CITY     CLEAR     67  61  81 S5        29.91S
SPENCER        CLOUDY    66  62  87 W5        29.90R FOG
STORM LAKE     CLEAR     66  63  88 W10       29.92S
$$

ABBREVIATIONS USED IN REMARKS
   TC - TEMPERATURE IN CELSIUS
  WCI - WIND CHILL INDEX
   HX - HEAT INDEX
  VSB - VISIBILITY



USA.gov is the U.S. government's official web portal to all federal, state and local government web resources and services.